Regional Weather Roundup
Issued by NWS Albany, NY

Home | Current Version | Previous Version | Text Only | Print | Product List | Glossary On
Versions: 1 2 3 4 5 6 7 8 9 10 11 12 13 14 15 16 17 18 19 20 21 22 23 24 25 26 27
000
ASUS41 KALY 211310
RWRALY

NEW YORK STATE HOURLY WEATHER ROUNDUP
NATIONAL WEATHER SERVICE ALBANY NY
900 AM EDT MON MAY 21 2018

NOTE: "FAIR" INDICATES FEW OR NO CLOUDS BELOW 12,000 FEET WITH NO
SIGNIFICANT WEATHER AND/OR NO OBSTRUCTIONS TO VISIBILITY.

NYZ032-033-038>043-046>054-057>066-NYZ062>081-082-084-211400-
EAST


CITY           SKY/WX    TMP DP  RH WIND       PRES   REMARKS
ALBANY         FAIR      62  51  67 CALM      30.22R
GLENS FALLS    FAIR      58  46  64 SE6       30.21R
POUGHKEEPSIE   FAIR      62  52  69 CALM      30.20S
NEWBURGH       SUNNY     63  55  77 CALM      30.22R
MONTGOMERY     FAIR      62  53  72 CALM      30.20S
WHITE PLAINS   FAIR      63  47  55 NE10      30.19S
ISLIP          FAIR      65  51  60 N14       30.19R
NEW YORK CITY  FAIR      66  49  54 N10       30.19S
CENTRAL PARK   FAIR      65  51  60 CALM      30.22S
$$

NYZ005>009-017-018-044>046-055-056-211400-
CENTRAL


CITY           SKY/WX    TMP DP  RH WIND       PRES   REMARKS
FULTON         FAIR      56  46  69 CALM      30.24S
SYRACUSE       FAIR      56  50  80 W6        30.24S
ROME           FAIR      51  49  92 CALM      30.27R
ELMIRA         CLOUDY    54  54 100 CALM      30.25S FOG
BINGHAMTON     FAIR      54  48  80 N5        30.24R
$$

NYZ026>034-041>043-087-211400-
NORTH


CITY           SKY/WX    TMP DP  RH WIND       PRES   REMARKS
WATERTOWN      FAIR      56  50  80 W7        30.23R
FORT DRUM      NOT AVBL
MASSENA        FAIR      60  47  61 SW9       30.19S
SARANAC LAKE   FAIR      52  44  74 W6        30.19S
PLATTSBURGH    FAIR      55  45  68 SE7       30.16R
$$

NYZ001>004-010>016-019>021-085-211400-
WEST


CITY           SKY/WX    TMP DP  RH WIND       PRES   REMARKS
NIAGARA FALLS  FAIR      58  39  49 E3        30.26R
BUFFALO        FAIR      60  38  43 CALM      30.27R
DUNKIRK        FAIR      59  46  62 E5        30.26R
JAMESTOWN      CLOUDY    51  50  96 SE5       30.27R FOG
WELLSVILLE     FAIR      58  51  78 CALM      30.28R
ROCHESTER      FAIR      55  45  68 SW5       30.27R
PENN YAN       FAIR      59  41  51 CALM      30.25S
$$

             KEY
       WCI = WIND CHILL INDEX
       VSB = VISIBILITY
       HX  = HEAT INDEX
$$




USA.gov is the U.S. government's official web portal to all federal, state and local government web resources and services.